Klamath Falls, OR

8:45 AM PST on December 03, 2016 (GMT -0800)
Klamath Falls International

Weather History for KLMT - September, 2013

Change the Weather History Date:

Tuesday, September 3, 2013

  Actual Average Record
Temperature  
Mean Temperature 62 °F 61 °F  
Max Temperature 81 °F 79 °F 100 °F (1998)
Min Temperature 43 °F 43 °F 32 °F (1971)
Degree Days  
Heating Degree Days 3 5  
Month to date heating degree days 4 14  
Since 1 July heating degree days 72 133  
Cooling Degree Days 0 1  
Month to date cooling degree days 1 3  
Year to date cooling degree days 269 162  
Growing Degree Days 12 (Base 50)    
Moisture  
Dew Point 39 °F    
Average Humidity 55    
Maximum Humidity 93    
Minimum Humidity 17    
Precipitation  
Precipitation 0.00 in 0.02 in 0.32 in (1940)
Month to date precipitation 0.00 0.06  
Year to date precipitation 4.79 9.80  
Sea Level Pressure  
Sea Level Pressure 29.94 in    
Wind  
Wind Speed 6 mph (South)    
Max Wind Speed 24 mph    
Max Gust Speed 29 mph    
Visibility 10 miles    
Events      
T = Trace of Precipitation, MM = Missing Value Source: NWS Daily Summary

Daily Weather History Graph

Daily Weather History Graph

Search for Another Location

Airport or City:

Trip Planner

Search our weather history database for the weather conditions in past years. The results will help you decide how hot, cold, wet, or windy it might be!

Date:

Astronomy

Sep. 03, 2013 Rise Set
Actual Time 6:34 AM PDT 7:36 PM PDT
Civil Twilight 6:06 AM PDT 8:05 PM PDT
Nautical Twilight 5:31 AM PDT 8:39 PM PDT
Astronomical Twilight 4:56 AM PDT 9:14 PM PDT
Moon 4:52 AM PDT 6:27 PM PDT
Length of Visible Light 13h 59m
Length of Day
13h 01m
Waning Crescent, 3% of the Moon is Illuminated
Sep 3
Waning Crescent
Sep 5
New
Sep 12
First Quarter
Sep 19
Full
Sep 26
Last Quarter

Hourly Weather History & Observations

Time (PDT) Temp. Dew Point Humidity Pressure Visibility Wind Dir Wind Speed Gust Speed Precip Events Conditions
12:53 AM 48.0 °F 44.1 °F 86% 29.91 in 10.0 mi Calm Calm - N/A   Clear
1:53 AM 46.9 °F 44.1 °F 90% 29.92 in 9.0 mi Calm Calm - N/A   Clear
2:53 AM 46.0 °F 42.1 °F 86% 29.92 in 10.0 mi Calm Calm - N/A   Clear
3:53 AM 43.0 °F 39.9 °F 89% 29.93 in 10.0 mi Calm Calm - N/A   Clear
4:53 AM 46.9 °F 44.1 °F 90% 29.93 in 10.0 mi Calm Calm - N/A   Clear
5:53 AM 44.1 °F 41.0 °F 89% 29.94 in 10.0 mi Calm Calm - N/A   Clear
6:53 AM 43.0 °F 39.9 °F 89% 29.96 in 10.0 mi Calm Calm - N/A   Clear
7:53 AM 51.1 °F 45.0 °F 80% 29.96 in 10.0 mi Calm Calm - N/A   Clear
8:53 AM 57.9 °F 46.0 °F 65% 29.96 in 10.0 mi Calm Calm - N/A   Clear
9:53 AM 64.0 °F 46.9 °F 54% 29.96 in 10.0 mi SW 3.5 mph - N/A   Clear
10:53 AM 69.1 °F 43.0 °F 39% 29.96 in 10.0 mi Variable 4.6 mph - N/A   Clear
11:53 AM 72.0 °F 41.0 °F 33% 29.96 in 10.0 mi SE 8.1 mph - N/A   Clear
12:53 PM 77.0 °F 30.0 °F 18% 29.94 in 10.0 mi SSW 19.6 mph 28.8 mph N/A   Clear
1:53 PM 78.1 °F 30.0 °F 17% 29.93 in 10.0 mi SSW 16.1 mph 21.9 mph N/A   Clear
2:53 PM 79.0 °F 30.0 °F 17% 29.92 in 10.0 mi South 13.8 mph 19.6 mph N/A   Clear
3:53 PM 80.1 °F 32.0 °F 17% 29.91 in 10.0 mi South 15.0 mph 20.7 mph N/A   Clear
4:53 PM 80.1 °F 32.0 °F 17% 29.89 in 10.0 mi South 13.8 mph - N/A   Clear
5:53 PM 77.0 °F 34.0 °F 21% 29.90 in 10.0 mi South 15.0 mph - N/A   Clear
6:53 PM 72.0 °F 30.0 °F 21% 29.91 in 10.0 mi South 13.8 mph - N/A   Clear
7:53 PM 66.0 °F 32.0 °F 28% 29.93 in 10.0 mi Variable 6.9 mph - N/A   Clear
8:53 PM 60.1 °F 45.0 °F 57% 29.95 in 10.0 mi South 8.1 mph - N/A   Clear
9:53 PM 57.0 °F 46.0 °F 67% 29.96 in 10.0 mi SW 6.9 mph - N/A   Clear
10:53 PM 54.0 °F 45.0 °F 72% 29.97 in 10.0 mi Calm Calm - N/A   Clear
11:53 PM 48.0 °F 43.0 °F 83% 29.99 in 10.0 mi Calm Calm - N/A   Clear